Location: Friaudour
(46.0460°N, 1.2873°E)
Time: 04:45:28
(UTC+00:00)

Cosmos 1666 - Pass Details

Date: 14 July 2020
Orbit: 497 x 521 km, 82.5° (Epoch: 06 August)

Event Time Altitude Azimuth Distance (km) Brightness Sun altitude
Exits shadow 02:47:58 20° 228° (SW) 1,219 3.9 -12.5°
Maximum altitude 02:50:04 36° 284° (WNW) 812 3.5 -12.2°
Drops below altitude 10° 02:53:35 10° 353° (N) 1,723 6.0 -11.8°
Sets 02:55:50 0° 2° (N) 2,609 7.1 -11.6°
